Flag for U.S.A. Weather past 2 weeks in Lexington, North Carolina, U.S.A.

Now
76 °F

Sunny.


Feels Like: 78 °F
Forecast: 66 / 87 °F
Wind: No wind

Location: Davidson County Airport

Current Time: Sep 1, 2015 at 10:25:56 AM

Latest Report: Sep 1, 2015 at 9:55 AM


Visibility: 10 mi

Pressure: 30.14 "Hg

Humidity: 79%

Dew point: 69 °F

Location of LexingtonLocation

Historic Weather in Lexington — Graph

°F

Lexington temperature yesterday

Maximum temperature yesterday: 84 °F (at 5:15 PM)
Minimum temperature yesterday: 66 °F (at 6:15 AM)
Average temperature yesterday: 73 °F

Past Weeks' High & Low Weather Summary

 TemperatureHumidityPressure
High90 °F (Aug 17, 1:15 PM)99% (Aug 18, 2:55 AM)30.26 "Hg (Aug 18, 2:55 AM)
Low59 °F (Aug 28, 5:15 AM)42% (Aug 28, 3:55 PM)29.87 "Hg (Aug 24, 5:35 PM)
Average74 °F78%30.06 "Hg
* Reported Aug 17 9:15 AM — Sep 1 9:15 AM, Lexington, Weather by CustomWeather, © 2015

Note: Actual official high and low records may vary slightly from our data, if they occured in-between our weather recording intervals... More about our weather records

Advertising

Lexington weather history for previous 24 hours

 ConditionsComfort  
Time TempWeatherWind HumidityBarometerVisibility
9:15 AM
Tue, Sep 1
73 °FSunny.No wind88%30.14 "Hg10 mi
8:55 AM71 °FSunny.No wind93%30.13 "Hg10 mi
8:35 AM69 °FSunny.No wind97%30.13 "Hg10 mi
8:15 AM68 °FFog.No wind98%30.13 "Hg2 mi
7:55 AM67 °FSunny.No wind99%30.13 "Hg7 mi
7:35 AM66 °FFog.No wind99%30.12 "Hg5 mi
7:15 AM65 °FFog.No wind99%30.12 "Hg5 mi
6:55 AM65 °FFog.No wind99%30.11 "Hg4 mi
6:35 AM65 °FFog.No wind99%30.11 "Hg5 mi
6:15 AM65 °FFog.No wind99%30.11 "Hg5 mi
5:55 AM65 °FFog.No wind98%30.10 "Hg4 mi
5:35 AM65 °FFog.No wind99%30.10 "Hg4 mi
5:15 AM65 °FFog.No wind99%30.10 "Hg5 mi
4:55 AM66 °FFog.No wind99%30.09 "Hg5 mi
4:35 AM65 °FFog.No wind99%30.09 "Hg4 mi
4:15 AM66 °FPassing clouds.No wind99%30.09 "Hg7 mi
3:55 AM65 °FFog.No wind99%30.09 "Hg5 mi
3:15 AM66 °FClear.No wind99%30.10 "Hg7 mi
2:55 AM67 °FClear.No wind99%30.10 "Hg10 mi
2:35 AM67 °FClear.No wind98%30.11 "Hg7 mi
2:15 AM67 °FFog.No wind99%30.11 "Hg5 mi
1:55 AM67 °FClear.No wind99%30.11 "Hg7 mi
1:15 AM68 °FClear.No wind98%30.12 "Hg10 mi
12:55 AM68 °FClear.No wind98%30.11 "Hg7 mi
11:35 PM
Mon, Aug 31
69 °FClear.No wind97%30.11 "Hg10 mi
10:55 PM70 °FPassing clouds.No wind96%30.11 "Hg10 mi
10:35 PM70 °FPassing clouds.No wind95%30.11 "Hg10 mi
10:15 PM71 °FPassing clouds.No wind94%30.11 "Hg10 mi
9:55 PM71 °FPassing clouds.No wind92%30.11 "Hg10 mi
9:35 PM72 °FPassing clouds.No wind89%30.10 "Hg10 mi
9:15 PM73 °FPassing clouds.No wind89%30.10 "Hg10 mi
8:55 PM72 °FClear.No wind91%30.09 "Hg10 mi
8:35 PM73 °FSunny.No wind89%30.08 "Hg10 mi
8:15 PM74 °FScattered clouds.No wind86%30.08 "Hg10 mi
7:55 PM75 °FScattered clouds.No wind83%30.07 "Hg10 mi
7:35 PM76 °FScattered clouds.No wind79%30.07 "Hg10 mi
7:15 PM80 °FScattered clouds.No wind70%30.07 "Hg10 mi
6:55 PM81 °FBroken clouds.5 mph66%30.06 "Hg10 mi
6:15 PM81 °FSunny.No wind67%30.06 "Hg10 mi
5:15 PM84 °FBroken clouds.No wind59%30.06 "Hg10 mi
4:55 PM83 °FSunny.3 mph60%30.07 "Hg10 mi
4:35 PM83 °FSunny.No wind60%30.06 "Hg10 mi
4:15 PM81 °FScattered clouds.No wind63%30.07 "Hg10 mi
3:55 PM83 °FScattered clouds.5 mph60%30.07 "Hg10 mi
3:35 PM83 °FScattered clouds.3 mph60%30.08 "Hg10 mi
3:15 PM83 °FPartly sunny.3 mph59%30.08 "Hg10 mi
2:55 PM82 °FScattered clouds.No wind61%30.08 "Hg10 mi
2:35 PM83 °FSunny.No wind60%30.09 "Hg10 mi
2:15 PM82 °FSunny.6 mph63%30.09 "Hg10 mi
1:55 PM80 °FScattered clouds.3 mph64%30.10 "Hg10 mi
1:35 PM80 °FScattered clouds.3 mph67%30.11 "Hg10 mi
1:15 PM80 °FBroken clouds.3 mph70%30.12 "Hg10 mi
12:55 PM77 °FBroken clouds.No wind74%30.12 "Hg10 mi
12:35 PM77 °FBroken clouds.No wind75%30.13 "Hg10 mi
12:15 PM78 °FScattered clouds.3 mph74%30.13 "Hg10 mi
11:55 AM75 °FPartly sunny.No wind79%30.14 "Hg10 mi
11:35 AM74 °FMostly cloudy.5 mph82%30.14 "Hg10 mi
11:15 AM74 °FOvercast.No wind84%30.14 "Hg10 mi
10:55 AM75 °FPartly sunny.5 mph82%30.14 "Hg10 mi
10:35 AM73 °FPartly sunny.No wind84%30.14 "Hg10 mi
10:15 AM71 °FLow clouds.No wind88%30.14 "Hg10 mi
Weather by CustomWeather, © 2015

See weather overviewHow to use our weather pages